Home > Weather > Galway > Past weeks

Flag for Ireland Weather for the Past 2 Weeks in Galway, Ireland

Now
48 °F

Light rain. Partly sunny.


Feels Like: 41 °F
Forecast: 42 / 48 °F
Wind: 22 mph from Southeast

Location: Shannon Airport

Current Time: Feb 6, 2016 at 12:12:49 PM

Latest Report: Feb 6, 2016 at 11:30 AM


Visibility: N/A

Pressure: 28.80 "Hg

Humidity: 94%

Dew point: 46 °F

Location of GalwayLocation

Historic Weather in Galway — Graph

°F

Galway Temperature Yesterday

Maximum temperature yesterday: 50 °F (at 12:00 AM)
Minimum temperature yesterday: 37 °F (at 9:30 PM)
Average temperature yesterday: 45 °F

High & Low Weather Summary for the Past Weeks

 TemperatureHumidityPressure
High57 °F (Jan 24, 2:00 AM)100% (Jan 25, 9:30 AM)30.39 "Hg (Jan 25, 9:30 AM)
Low37 °F (Jan 30, 8:00 AM)54% (Feb 3, 11:30 AM)28.82 "Hg (Feb 6, 10:30 AM)
Average48 °F83%29.85 "Hg
* Reported Jan 22 11:00 AM — Feb 6 11:00 AM, Galway, Weather by CustomWeather, © 2016

Note: Actual official high and low records may vary slightly from our data, if they occured in-between our weather recording intervals... More about our weather records

Advertising

Galway Weather History for the Previous 24 Hours

 ConditionsComfort  
Time TempWeatherWind HumidityBarometerVisibility
11:00 AM
Sat, Feb 6
48 °FLight rain. Broken clouds.21 mph87%28.82 "HgN/A
10:30 AM48 °FBroken clouds.22 mph82%28.82 "HgN/A
10:00 AM46 °FBroken clouds.23 mph87%28.88 "HgN/A
9:30 AM46 °FBroken clouds.21 mph87%28.91 "HgN/A
9:00 AM45 °FBroken clouds.20 mph93%28.94 "HgN/A
8:30 AM45 °FPartly sunny.21 mph87%28.97 "HgN/A
8:00 AM45 °FPartly cloudy.23 mph87%29.00 "HgN/A
7:30 AM45 °FPartly cloudy.18 mph87%29.03 "HgN/A
7:00 AM45 °FPartly cloudy.20 mph87%29.06 "HgN/A
6:30 AM43 °FPartly cloudy.16 mph87%29.09 "HgN/A
6:00 AM43 °FOvercast.17 mph87%29.15 "HgN/A
5:30 AM43 °FOvercast.17 mph87%29.18 "HgN/A
5:00 AM43 °FPassing clouds.15 mph87%29.24 "HgN/A
4:00 AM43 °FPassing clouds.18 mph87%29.30 "HgN/A
3:30 AM43 °FLight rain. Partly cloudy.15 mph81%29.33 "HgN/A
3:00 AM41 °FLight rain. Passing clouds.16 mph87%29.36 "HgN/A
2:00 AM41 °FOvercast.18 mph87%29.42 "HgN/A
1:30 AM41 °FPartly cloudy.17 mph87%29.42 "HgN/A
12:30 AM41 °FPartly cloudy.13 mph87%29.47 "HgN/A
12:00 AM41 °FPartly cloudy.9 mph81%29.50 "HgN/A
11:30 PM
Fri, Feb 5
41 °FPartly cloudy.16 mph81%29.53 "HgN/A
11:00 PM39 °FPassing clouds.15 mph87%29.56 "HgN/A
10:30 PM39 °FPartly cloudy.13 mph87%29.56 "HgN/A
10:00 PM39 °FPassing clouds.10 mph87%29.59 "HgN/A
9:30 PM37 °FPassing clouds.12 mph93%29.59 "HgN/A
9:00 PM39 °FPassing clouds.10 mph87%29.59 "HgN/A
8:30 PM39 °FPassing clouds.10 mph87%29.59 "HgN/A
8:00 PM39 °FPassing clouds.13 mph87%29.62 "HgN/A
7:30 PM39 °FPassing clouds.7 mph87%29.62 "HgN/A
7:00 PM41 °FPassing clouds.9 mph87%29.62 "HgN/A
6:30 PM41 °FPassing clouds.14 mph87%29.65 "HgN/A
6:00 PM41 °FPassing clouds.9 mph93%29.65 "HgN/A
5:30 PM43 °FPassing clouds.9 mph87%29.65 "HgN/A
5:00 PM43 °FPassing clouds.9 mph81%29.65 "HgN/A
4:30 PM43 °FBroken clouds.10 mph87%29.62 "HgN/A
4:00 PM43 °FBroken clouds.13 mph87%29.65 "HgN/A
3:30 PM43 °FPartly sunny.9 mph93%29.65 "HgN/A
3:00 PM43 °FBroken clouds.10 mph87%29.65 "HgN/A
2:30 PM43 °FLight rain. Broken clouds.9 mph93%29.65 "HgN/A
2:00 PM43 °FLight rain. Broken clouds.10 mph93%29.65 "HgN/A
1:30 PM43 °FLight rain. Partly sunny.12 mph93%29.68 "HgN/A
1:00 PM43 °FLight rain. Broken clouds.13 mph93%29.68 "Hg4 mi
12:30 PM43 °FLight rain. Broken clouds.13 mph93%29.68 "Hg4 mi
12:00 PM45 °FLight rain. More clouds than sun.9 mph93%29.68 "Hg6 mi
Weather by CustomWeather, © 2016

See weather overviewHow to use our weather pages